Flag for United Kingdom Weather past 2 weeks in Stornoway, Scotland, United Kingdom

Now
54 °F

Sprinkles. Partly cloudy.


Feels Like: 47 °F
Forecast: 44 / 54 °F
Wind: 28 mph from South

Location: Stornoway

Current Time: Oct 21, 2014 at 12:38:30 AM

Latest Report: Oct 21, 2014 at 12:20 AM


Visibility: 4 mi

Pressure: 29.06 "Hg

Humidity: 88%

Dew point: 50 °F

Location of StornowayLocation

Historic Weather in Stornoway — Graph

°F

Stornoway temperature yesterday

Maximum temperature yesterday: 55 °F (at 4:20 PM)
Minimum temperature yesterday: 45 °F (at 1:50 AM)
Average temperature yesterday: 51 °F

Past Weeks' High & Low Weather Summary

 TemperatureHumidityPressure
High61 °F (Oct 17, 2:20 PM)100% (Oct 20, 2:20 PM)30.04 "Hg (Oct 20, 2:20 PM)
Low36 °F (Oct 7, 2:50 AM)59% (Oct 15, 3:20 PM)29.06 "Hg (Oct 19, 6:50 AM)
Average51 °F81%29.55 "Hg
* Reported Oct 5 11:20 PM — Oct 20 11:20 PM, Stornoway, Weather by CustomWeather, © 2014

Note: Actual official high and low records may vary slightly from our data, if they occured in-between our weather recording intervals... More about our weather records

Advertising

Stornoway weather history for previous 24 hours

 ConditionsComfort  
Time TempWeatherWind HumidityBarometerVisibility
11:20 PM
Oct 20
54 °FSprinkles. Passing clouds.29 mph88%29.12 "HgN/A
10:50 PM54 °FSprinkles. Passing clouds.25 mph82%29.15 "Hg5 mi
10:20 PM54 °FPartly cloudy.25 mph88%29.18 "HgN/A
9:50 PM54 °FLight rain. Passing clouds.24 mph88%29.21 "HgN/A
9:20 PM54 °FLight rain. Passing clouds.25 mph88%29.24 "Hg5 mi
8:50 PM54 °FSprinkles. Passing clouds.21 mph88%29.27 "HgN/A
8:20 PM54 °FSprinkles. Passing clouds.23 mph88%29.30 "Hg6 mi
7:50 PM55 °FLight rain. Partly cloudy.22 mph94%29.33 "HgN/A
7:20 PM55 °FPartly cloudy.21 mph94%29.33 "HgN/A
6:50 PM55 °FBroken clouds.20 mph94%29.36 "HgN/A
6:20 PM55 °FScattered clouds.20 mph94%29.36 "HgN/A
5:50 PM55 °FDrizzle. Broken clouds.22 mph94%29.39 "Hg2 mi
5:20 PM55 °FLight rain. Broken clouds.20 mph94%29.42 "HgN/A
4:50 PM55 °FLight rain. Broken clouds.15 mph94%29.42 "HgN/A
4:20 PM55 °FScattered showers. Scattered clouds.16 mph94%29.45 "HgN/A
3:50 PM54 °FLight rain. Broken clouds.18 mph100%29.45 "HgN/A
3:20 PM54 °FLight rain. Broken clouds.15 mph100%29.47 "HgN/A
2:50 PM54 °FDrizzle. Broken clouds.21 mph100%29.47 "Hg4 mi
2:20 PM54 °FLight rain. Broken clouds.21 mph100%29.50 "HgN/A
1:50 PM54 °FLight rain. Broken clouds.22 mph82%29.50 "HgN/A
1:20 PM54 °FScattered showers. Broken clouds.20 mph82%29.53 "HgN/A
12:50 PM54 °FScattered clouds.17 mph82%29.53 "HgN/A
12:20 PM54 °FScattered clouds.16 mph82%29.56 "HgN/A
11:50 AM54 °FScattered clouds.14 mph82%29.56 "HgN/A
11:20 AM52 °FScattered clouds.12 mph82%29.56 "HgN/A
10:50 AM52 °FPartly sunny.9 mph82%29.59 "HgN/A
10:20 AM52 °FScattered clouds.12 mph82%29.59 "HgN/A
9:50 AM50 °FScattered clouds.8 mph88%29.59 "HgN/A
9:20 AM48 °FScattered clouds.7 mph87%29.59 "HgN/A
8:50 AM48 °FPassing clouds.6 mph87%29.59 "HgN/A
7:50 AM48 °FPartly cloudy.7 mph87%29.59 "HgN/A
7:20 AM48 °FPassing clouds.7 mph82%29.59 "Hg6 mi
6:50 AM48 °FPassing clouds.7 mph87%29.59 "Hg6 mi
6:20 AM48 °FLight rain. Passing clouds.8 mph82%29.59 "Hg6 mi
5:50 AM48 °FPassing clouds.14 mph82%29.59 "Hg6 mi
4:20 AM46 °FCool.10 mph82%29.59 "HgN/A
3:50 AM46 °FCool.10 mph82%29.59 "HgN/A
3:20 AM46 °FCool.12 mph82%29.59 "HgN/A
2:50 AM46 °FCool.7 mph82%29.59 "HgN/A
2:20 AM46 °FCool.9 mph82%29.59 "HgN/A
1:50 AM45 °FPassing clouds.12 mph81%29.59 "HgN/A
1:20 AM46 °FPassing clouds.12 mph82%29.59 "HgN/A
12:50 AM46 °FPassing clouds.15 mph82%29.59 "HgN/A
12:20 AM48 °FPassing clouds.16 mph82%29.56 "HgN/A
Weather by CustomWeather, © 2014

See weather overviewHow to use our weather pages